Tracking 19794 objects as of 21-Jul-2019
HD Live streaming from Space Station
objects crossing your sky now

FENGYUN 1C DEB

Track FENGYUN 1C DEB now!
10-day predictions


NORAD ID: 33727
Int'l Code: 1999-025DHQ
Perigee: 670.5 km
Apogee: 715.4 km
Inclination: 99.8 °
Period: 98.5 minutes
Semi major axis: 7063 km
RCS: 0.003 m2 (small)
Launch date: May 10, 1999
Source: People's Republic of China (PRC)
Launch site: Taiyaun Space Center, China (TSC)

Note: This is SATELLITE DEBRIS
aabbcc
Your satellite tracking list
Your tracking list is empty




NASA's NSSDC Master Catalog

Two Line Element Set (TLE):
1 33727U 99025DHQ 19200.63373229  .00001981  00000-0  40259-3 0  9996
2 33727  99.7513 148.8395 0031734 131.9424 228.4485 14.62287377617721
Source of the keplerian elements: AFSPC